DELTA 1 DEB, 10840

Orbit data source: Space-Track

DELTA 1 DEB, 10840 is space debris in SSO originally from a launch on Thu, 29 Jul 1976 UTC launched from the Air Force Western Test Range (AFWTR). Debris objects in space refer to the collection of defunct objects orbiting the Earth. Examples of debris include non-operational satellites, rocket bodies, and fragments generated from explosions, collisions, or faulty payload assembly.

Loading next visibility...
Identifier
10840, 1976-077CL
Orbit
SSO
Country
Flag of USUS
Related business
Manufacturer
Unknown
Mission
Spacecraft
Bus & Motor
Unknown
Mass
Unknown
Launch date (UTC)
1976-07-29 (50 years ago)
Launch vehicle
Unknown
Launch site
Air Force Western Test Range (AFWTR)
Object type
Payload
Rocket body
Debris
Shape & HBR
Unknown shape, 0.3 m
Radar Cross Section
Medium (>0.1 m² and <1 m²)

Expand to show TLE details & history
Last TLE update: 23 hours ago

TLE from 23 hours ago
0 DELTA 1 DEB
1 10840U 76077CL  26265.20257678 -.00000031  00000-0  14000-3 0  9991
2 10840 102.6311   2.9736 0141594 226.6635 162.5526 12.16062525226737
Epoch: 2026-09-22T04:51Z
TLE epoch observation values (Epoch: 2026-09-22T04:51:42.633Z)
Latitude
28.9506°
Longitude
-78.11248°
Altitude
1,721.023 km
Speed
6.971 km/s
True Right ascension
23h 43m 32s
True Declination
28° 49' 21"
Sunlit
Object was in full shadow at epoch
Visualization orbit readout
Latitude
Unknown
Longitude
Unknown
Altitude
Unknown
Speed
Unknown
Apparent Right ascension
Unknown
Apparent Declination
Unknown
Sunlit
N/A
Visualization observer readout
Local Sidereal Time
20:29:32
Azimuth
Unknown
Elevation
Unknown
Doppler factor
Unknown
Orbital elements
Apogee altitude
1,720.451 km
Perigee altitude
1,494.311 km
Semi-major axis
7,985.518 km
Eccentricity
0.01416
Inclination
102.6311°
RAAN
2.9736°
Arg. of periapsis
226.6635°
True anomaly
163.031°
Mean anomaly
162.5526°
Eccentric anomaly
162.7926°
Mean motion
3.0415 °/min
Orbital period
118.36 mins
BSTAR
0.00014
Loading maneuver chart data...
Computing Atmospheric mass density...
Loading historical data...
Loading historical data...
Loading historical data...
Loading historical data...
Loading historical data...
Loading historical data...
Loading historical data...

Documentation

Showing up to 5 results
|